Location: Newark
(50.7115°N, 3.8495°W)
Time: 21:47:41
(UTC+00:00)

Envisat - Visible Passes

Search period start: 20 October 2019 00:00
Search period end: 30 October 2019 00:00
Orbit: 764 x 766 km, 98.1° (Epoch: 20 October)

Date Brightness Start Highest point End Pass type
(mag) Time Alt. Az. Time Alt. Az. Time Alt. Az.
20 Oct 5.1 19:13:13 10° SSW 19:17:33 28° W 19:21:54 10° NW visible
21 Oct 6.6 05:39:31 10° ENE 05:41:06 11° E 05:42:40 10° ESE visible
21 Oct 3.8 18:35:34 10° S 18:40:32 55° W 18:45:33 10° NNW visible
22 Oct 3.0 17:58:39 10° SSE 18:03:43 77° ENE 18:08:49 10° NNW visible
22 Oct 5.8 19:40:01 10° SW 19:43:21 17° W 19:46:42 10° NW visible
23 Oct 6.0 06:03:25 10° NE 06:06:59 19° E 06:10:32 10° SE visible
23 Oct 4.7 19:01:35 10° SSW 19:06:11 34° W 19:10:49 10° NNW visible
24 Oct 3.4 18:24:11 10° S 18:29:14 67° WSW 18:34:20 10° NNW visible
24 Oct 6.3 20:08:31 10° W 20:09:15 10° W 20:09:59 10° WNW visible
25 Oct 3.0 17:47:28 10° SSE 17:52:28 63° ENE 17:57:30 10° N visible
25 Oct 5.5 19:28:07 10° SW 19:31:56 21° W 19:35:48 10° NW visible
26 Oct 6.2 05:52:36 10° NE 05:55:34 15° E 05:58:32 10° ESE visible
26 Oct 4.3 18:50:04 10° SSW 18:54:51 41° W 18:59:40 10° NNW visible
27 Oct 3.1 18:12:52 10° SSE 18:17:57 82° WSW 18:23:04 10° NNW visible
27 Oct 6.1 19:55:29 10° WSW 19:57:48 13° W 20:00:07 10° WNW visible
28 Oct 5.7 06:17:14 10° NE 06:21:23 25° E 06:25:32 10° SSE visible
28 Oct 3.2 17:36:20 10° SE 17:41:15 52° ENE 17:46:11 10° N visible
28 Oct 5.2 19:16:21 10° SSW 19:20:33 26° W 19:24:48 10° NW visible
29 Oct 6.3 05:42:03 10° ENE 05:44:08 12° E 05:46:14 10° ESE visible
29 Oct 3.9 18:38:35 10° S 18:43:31 50° W 18:48:29 10° NNW visible
